{"data":{"norad_id":41850,"epoch":"2026-09-19T01:49:43.260096Z","epoch_age_seconds":137346,"freshness":"FRESH","line1":"1 41850U 16067C   26262.07619514  .00003658  00000+0  17115-3 0  9998","line2":"2 41850  98.0512 135.0306 0000682  74.6552 285.4757 15.20468990540144","mean_motion":15.2046899,"eccentricity":6.82e-5,"inclination_deg":98.0512,"raan_deg":135.0306,"arg_perigee_deg":74.6552,"mean_anomaly_deg":285.4757,"bstar":0.00017115,"rev_number":54014,"period_min":94.707620442821,"perigee_km":503.95557092546,"apogee_km":504.89435237702,"semimajor_km":6882.5619616512,"source":"CELESTRAK","updated_at":"2026-09-20T09:00:48.031375Z"}}